PIA306 OPKC-OPLA

Flight info

Callsign PIA306
Flight time 1h 16m
Altitude 35000
Route BADUL J112 MIMAL
Aircraft B772/H-SDE2E3FGHIJ5LORVWXY/LB1D1

Departure

Time 2026-05-03 21:18
Airport Jinnah International Airport (OPKC)

Arrival

Time 2026-05-03 22:35
Airport Allama Iqbal International Airport (OPLA)
Time Latitude Longitude Altitude Speed Heading
2026-05-03 20:58 24.90255 67.16652 103 ft 0 kts 204°
2026-05-03 21:07 24.90266 67.16657 105 ft 4 kts 204°
2026-05-03 21:07 24.90291 67.16669 105 ft 4 kts 204°
2026-05-03 21:07 24.90316 67.16681 104 ft 4 kts 203°
2026-05-03 21:08 24.90324 67.16686 104 ft 4 kts 191°
2026-05-03 21:08 24.90328 67.16692 104 ft 4 kts 128°
2026-05-03 21:08 24.90327 67.16714 107 ft 4 kts 87°
2026-05-03 21:08 24.90330 67.16737 107 ft 4 kts 92°
2026-05-03 21:09 24.90329 67.16728 105 ft 3 kts 155°
2026-05-03 21:09 24.90292 67.16738 105 ft 0 kts 345°
2026-05-03 21:12 24.90296 67.16737 106 ft 2 kts 345°
2026-05-03 21:13 24.90332 67.16726 104 ft 7 kts 345°
2026-05-03 21:13 24.90381 67.16711 106 ft 7 kts 344°
2026-05-03 21:13 24.90432 67.16697 106 ft 7 kts 350°
2026-05-03 21:13 24.90475 67.16723 107 ft 7 kts 53°
2026-05-03 21:14 24.90494 67.16775 106 ft 7 kts 72°
2026-05-03 21:14 24.90512 67.16842 106 ft 10 kts 74°
2026-05-03 21:14 24.90531 67.16916 106 ft 12 kts 74°
2026-05-03 21:14 24.90561 67.17032 106 ft 18 kts 74°
2026-05-03 21:15 24.90595 67.17165 107 ft 18 kts 74°
2026-05-03 21:15 24.90629 67.17299 107 ft 18 kts 74°
2026-05-03 21:15 24.90663 67.17433 106 ft 18 kts 71°
2026-05-03 21:15 24.90735 67.17545 107 ft 18 kts 44°
2026-05-03 21:16 24.90825 67.17642 106 ft 18 kts 45°
2026-05-03 21:16 24.90914 67.17740 108 ft 18 kts 45°
2026-05-03 21:16 24.91005 67.17837 106 ft 18 kts 43°
2026-05-03 21:16 24.91112 67.17903 108 ft 18 kts
2026-05-03 21:17 24.91198 67.17822 109 ft 18 kts 287°
2026-05-03 21:17 24.91215 67.17730 109 ft 18 kts 274°
2026-05-03 21:17 24.91176 67.17540 110 ft 28 kts 254°
2026-05-03 21:17 24.91051 67.17047 111 ft 109 kts 254°
2026-05-03 21:18 24.90772 67.15966 170 ft 175 kts 253°
2026-05-03 21:18 24.90437 67.14677 1098 ft 167 kts 260°
2026-05-03 21:18 24.90496 67.13492 2006 ft 157 kts 303°
2026-05-03 21:18 24.91325 67.12672 2462 ft 167 kts 337°
2026-05-03 21:19 24.92107 67.12385 2706 ft 186 kts 347°
2026-05-03 21:19 24.93498 67.12549 2916 ft 223 kts 22°
2026-05-03 21:19 24.94764 67.13688 3169 ft 253 kts 42°
2026-05-03 21:19 24.95990 67.15148 3751 ft 265 kts 43°
2026-05-03 21:20 24.97249 67.16677 4441 ft 273 kts 44°
2026-05-03 21:20 24.98540 67.18247 5169 ft 279 kts 45°
2026-05-03 21:20 24.99850 67.19837 5925 ft 283 kts 45°
2026-05-03 21:20 25.01190 67.21455 6644 ft 287 kts 45°
2026-05-03 21:21 25.02549 67.23090 7370 ft 291 kts 45°
2026-05-03 21:21 25.03929 67.24742 8084 ft 295 kts 45°
2026-05-03 21:21 25.05329 67.26417 8799 ft 299 kts 45°
2026-05-03 21:21 25.06747 67.28110 9493 ft 302 kts 46°
2026-05-03 21:22 25.08189 67.29830 10021 ft 312 kts 45°
2026-05-03 21:22 25.09719 67.31650 10180 ft 335 kts 45°
2026-05-03 21:22 25.11380 67.33580 10351 ft 359 kts 45°
2026-05-03 21:22 25.13157 67.35649 10600 ft 382 kts 45°
2026-05-03 21:23 25.14990 67.37821 11305 ft 392 kts 46°
2026-05-03 21:23 25.16850 67.40057 12205 ft 396 kts 46°
2026-05-03 21:23 25.18709 67.42308 13182 ft 399 kts 46°
2026-05-03 21:23 25.20586 67.44586 14031 ft 403 kts 45°
2026-05-03 21:24 25.22489 67.46877 14801 ft 407 kts 44°
2026-05-03 21:24 25.24562 67.49015 15561 ft 409 kts 37°
2026-05-03 21:24 25.26765 67.51027 16304 ft 413 kts 36°
2026-05-03 21:24 25.29002 67.53041 17026 ft 417 kts 36°
2026-05-03 21:25 25.31261 67.55073 17750 ft 420 kts 36°
2026-05-03 21:25 25.33535 67.57127 18388 ft 424 kts 36°
2026-05-03 21:25 25.35826 67.59205 18961 ft 428 kts 36°
2026-05-03 21:25 25.38138 67.61310 19529 ft 432 kts 36°
2026-05-03 21:26 25.40463 67.63433 20094 ft 436 kts 36°
2026-05-03 21:26 25.42808 67.65579 20661 ft 439 kts 36°
2026-05-03 21:26 25.45172 67.67746 21203 ft 443 kts 35°
2026-05-03 21:26 25.47551 67.69927 21744 ft 447 kts 35°
2026-05-03 21:27 25.49954 67.72131 22271 ft 450 kts 35°
2026-05-03 21:27 25.52376 67.74354 22816 ft 454 kts 35°
2026-05-03 21:27 25.54816 67.76594 23320 ft 458 kts 35°
2026-05-03 21:27 25.57276 67.78854 23749 ft 461 kts 35°
2026-05-03 21:28 25.59752 67.81130 24177 ft 464 kts 35°
2026-05-03 21:28 25.62214 67.83394 24579 ft 468 kts 34°
2026-05-03 21:28 25.64726 67.85706 25004 ft 471 kts 34°
2026-05-03 21:28 25.67257 67.88035 25420 ft 474 kts 34°
2026-05-03 21:29 25.69805 67.90382 25837 ft 478 kts 34°
2026-05-03 21:29 25.72396 67.92771 26243 ft 481 kts 34°
2026-05-03 21:29 25.74982 67.95157 26656 ft 484 kts 34°
2026-05-03 21:29 25.77573 67.97547 27039 ft 487 kts 34°
2026-05-03 21:30 25.80151 67.99928 27416 ft 490 kts 34°
2026-05-03 21:30 25.82779 68.02356 27799 ft 493 kts 34°
2026-05-03 21:30 25.85422 68.04800 28145 ft 496 kts 34°
2026-05-03 21:30 25.88079 68.07258 28482 ft 499 kts 34°
2026-05-03 21:31 25.90752 68.09732 28801 ft 501 kts 34°
2026-05-03 21:31 25.93438 68.12220 29111 ft 504 kts 34°
2026-05-03 21:31 25.96092 68.14680 29408 ft 506 kts 34°
2026-05-03 21:31 25.98797 68.17190 29732 ft 508 kts 34°
2026-05-03 21:32 26.01505 68.19705 30072 ft 507 kts 34°
2026-05-03 21:32 26.04206 68.22214 30451 ft 506 kts 34°
2026-05-03 21:32 26.06905 68.24722 30816 ft 505 kts 34°
2026-05-03 21:32 26.09601 68.27229 31189 ft 505 kts 34°
2026-05-03 21:33 26.12295 68.29736 31552 ft 505 kts 33°
2026-05-03 21:33 26.14989 68.32243 31928 ft 505 kts 33°
2026-05-03 21:33 26.17681 68.34751 32297 ft 505 kts 33°
2026-05-03 21:33 26.20373 68.37260 32665 ft 505 kts 33°
2026-05-03 21:34 26.23073 68.39758 33012 ft 504 kts 32°
2026-05-03 21:34 26.25830 68.42163 33369 ft 503 kts 30°
2026-05-03 21:34 26.28622 68.44510 33716 ft 502 kts 29°
2026-05-03 21:34 26.31413 68.46833 34039 ft 502 kts 29°
2026-05-03 21:35 26.34208 68.49167 34365 ft 502 kts 30°
2026-05-03 21:35 26.36995 68.51516 34691 ft 502 kts 30°
2026-05-03 21:35 26.39775 68.53877 35035 ft 502 kts 30°
2026-05-03 21:35 26.42548 68.56243 35377 ft 502 kts 30°
2026-05-03 21:36 26.45318 68.58613 35704 ft 501 kts 30°
2026-05-03 21:36 26.48085 68.60981 36051 ft 501 kts 30°
2026-05-03 21:36 26.50851 68.63348 36376 ft 501 kts 30°
2026-05-03 21:36 26.53614 68.65714 36707 ft 500 kts 29°
2026-05-03 21:37 26.56377 68.68080 37031 ft 500 kts 29°
2026-05-03 21:37 26.59137 68.70444 37364 ft 500 kts 29°
2026-05-03 21:37 26.61894 68.72805 37693 ft 499 kts 29°
2026-05-03 21:37 26.64652 68.75156 38028 ft 498 kts 28°
2026-05-03 21:38 26.67410 68.77501 38322 ft 498 kts 28°
2026-05-03 21:38 26.70164 68.79840 38520 ft 499 kts 28°
2026-05-03 21:38 26.75738 68.84575 38613 ft 506 kts 29°
2026-05-03 21:39 26.81320 68.89341 38616 ft 500 kts 29°
2026-05-03 21:39 26.86825 68.94054 38622 ft 497 kts 28°
2026-05-03 21:40 26.92283 68.98721 38623 ft 497 kts 28°
2026-05-03 21:40 26.97813 69.03454 38624 ft 497 kts 28°
2026-05-03 21:41 27.03303 69.08162 38631 ft 498 kts 28°
2026-05-03 21:41 27.08770 69.12856 38633 ft 499 kts 28°
2026-05-03 21:42 27.14283 69.17597 38624 ft 500 kts 28°
2026-05-03 21:42 27.19805 69.22352 38631 ft 500 kts 28°
2026-05-03 21:43 27.25370 69.27150 38630 ft 501 kts 28°
2026-05-03 21:43 27.30842 69.31928 38617 ft 503 kts 30°
2026-05-03 21:44 27.36326 69.36823 38615 ft 503 kts 30°
2026-05-03 21:44 27.41807 69.41728 38622 ft 503 kts 30°
2026-05-03 21:45 27.47295 69.46632 38626 ft 504 kts 30°
2026-05-03 21:45 27.52785 69.51535 38624 ft 504 kts 30°
2026-05-03 21:46 27.58270 69.56438 38625 ft 504 kts 30°
2026-05-03 21:46 27.63761 69.61354 38620 ft 504 kts 30°
2026-05-03 21:47 27.69250 69.66276 38624 ft 504 kts 30°
2026-05-03 21:47 27.74740 69.71205 38624 ft 504 kts 30°
2026-05-03 21:48 27.80233 69.76142 38624 ft 505 kts 30°
2026-05-03 21:48 27.85729 69.81090 38626 ft 505 kts 30°
2026-05-03 21:49 27.91225 69.86044 38633 ft 506 kts 30°
2026-05-03 21:49 27.96726 69.91009 38634 ft 507 kts 30°
2026-05-03 21:50 28.02244 69.95996 38621 ft 508 kts 30°
2026-05-03 21:50 28.07769 70.00998 38628 ft 509 kts 30°
2026-05-03 21:51 28.13302 70.06012 38636 ft 510 kts 31°
2026-05-03 21:51 28.18842 70.11041 38641 ft 511 kts 31°
2026-05-03 21:52 28.24384 70.16078 38640 ft 511 kts 31°
2026-05-03 21:52 28.29938 70.21134 38637 ft 512 kts 31°
2026-05-03 21:53 28.35491 70.26208 38643 ft 514 kts 32°
2026-05-03 21:53 28.40660 70.31919 38645 ft 522 kts 40°
2026-05-03 21:54 28.45534 70.37976 38643 ft 523 kts 41°
2026-05-03 21:54 28.50435 70.44092 38641 ft 523 kts 40°
2026-05-03 21:55 28.55359 70.50171 38639 ft 523 kts 40°
2026-05-03 21:55 28.60300 70.56241 38644 ft 522 kts 40°
2026-05-03 21:56 28.65263 70.62346 38640 ft 522 kts 40°
2026-05-03 21:56 28.70152 70.68372 38644 ft 522 kts 41°
2026-05-03 21:57 28.75072 70.74449 38641 ft 521 kts 41°
2026-05-03 21:57 28.79986 70.80528 38645 ft 521 kts 41°
2026-05-03 21:58 28.84891 70.86605 38651 ft 521 kts 41°
2026-05-03 21:58 28.89796 70.92691 38653 ft 521 kts 41°
2026-05-03 21:59 28.94696 70.98779 38652 ft 521 kts 41°
2026-05-03 21:59 28.99594 71.04875 38655 ft 521 kts 41°
2026-05-03 22:00 29.04490 71.10977 38655 ft 521 kts 41°
2026-05-03 22:00 29.09379 71.17080 38657 ft 521 kts 41°
2026-05-03 22:01 29.14273 71.23198 38659 ft 522 kts 42°
2026-05-03 22:01 29.19176 71.29337 38654 ft 523 kts 42°
2026-05-03 22:02 29.24079 71.35487 38650 ft 524 kts 42°
2026-05-03 22:02 29.28992 71.41657 38649 ft 524 kts 42°
2026-05-03 22:03 29.33875 71.47867 38648 ft 525 kts 43°
2026-05-03 22:03 29.38699 71.54092 38656 ft 526 kts 43°
2026-05-03 22:04 29.43557 71.60368 38653 ft 526 kts 43°
2026-05-03 22:04 29.48416 71.66640 38656 ft 526 kts 43°
2026-05-03 22:05 29.53272 71.72914 38645 ft 525 kts 43°
2026-05-03 22:05 29.58116 71.79181 38646 ft 524 kts 43°
2026-05-03 22:06 29.62948 71.85443 38643 ft 524 kts 44°
2026-05-03 22:06 29.67772 71.91706 38646 ft 523 kts 44°
2026-05-03 22:07 29.71777 71.96913 38643 ft 522 kts 44°
2026-05-03 22:07 29.76585 72.03173 38642 ft 522 kts 44°
2026-05-03 22:08 29.81382 72.09428 38641 ft 521 kts 44°
2026-05-03 22:08 29.86156 72.15721 38642 ft 523 kts 48°
2026-05-03 22:09 29.88076 72.19305 38623 ft 531 kts 65°
2026-05-03 22:09 29.89305 72.23201 38641 ft 531 kts 69°
2026-05-03 22:10 29.92692 72.35400 38637 ft 534 kts 69°
2026-05-03 22:10 29.95083 72.43515 38650 ft 535 kts 69°
2026-05-03 22:11 29.97528 72.51625 38635 ft 537 kts 69°
2026-05-03 22:11 29.99963 72.59770 38647 ft 537 kts 69°
2026-05-03 22:11 30.01370 72.63748 38640 ft 534 kts 58°
2026-05-03 22:12 30.03494 72.67193 38635 ft 522 kts 44°
2026-05-03 22:12 30.08471 72.73287 38650 ft 522 kts 42°
2026-05-03 22:13 30.13409 72.79459 38647 ft 524 kts 44°
2026-05-03 22:13 30.18268 72.85760 38225 ft 531 kts 44°
2026-05-03 22:13 30.20730 72.88952 37364 ft 531 kts 44°
2026-05-03 22:14 30.23181 72.92135 36558 ft 529 kts 45°
2026-05-03 22:14 30.25622 72.95308 35734 ft 527 kts 45°
2026-05-03 22:14 30.28057 72.98474 34824 ft 526 kts 45°
2026-05-03 22:14 30.30494 73.01645 33841 ft 528 kts 45°
2026-05-03 22:15 30.32936 73.04824 32656 ft 530 kts 46°
2026-05-03 22:15 30.35383 73.08012 31507 ft 529 kts 46°
2026-05-03 22:15 30.37826 73.11200 30350 ft 529 kts 47°
2026-05-03 22:15 30.40255 73.14373 29366 ft 524 kts 47°
2026-05-03 22:16 30.42627 73.17476 28468 ft 514 kts 47°
2026-05-03 22:16 30.44972 73.20547 27644 ft 505 kts 47°
2026-05-03 22:16 30.47311 73.23610 26851 ft 497 kts 47°
2026-05-03 22:16 30.49554 73.26551 26084 ft 490 kts 47°
2026-05-03 22:17 30.51798 73.29492 25332 ft 483 kts 47°
2026-05-03 22:17 30.54012 73.32397 24579 ft 478 kts 47°
2026-05-03 22:17 30.56199 73.35269 23837 ft 473 kts 47°
2026-05-03 22:17 30.58368 73.38119 23086 ft 469 kts 47°
2026-05-03 22:18 30.60515 73.40940 22237 ft 464 kts 47°
2026-05-03 22:18 30.62638 73.43734 21476 ft 458 kts 47°
2026-05-03 22:18 30.64733 73.46493 20757 ft 453 kts 47°
2026-05-03 22:18 30.66807 73.49226 20058 ft 449 kts 47°
2026-05-03 22:19 30.68858 73.51931 19362 ft 445 kts 47°
2026-05-03 22:19 30.70894 73.54618 18692 ft 441 kts 47°
2026-05-03 22:19 30.72916 73.57288 18000 ft 439 kts 47°
2026-05-03 22:19 30.74928 73.59946 17257 ft 436 kts 47°
2026-05-03 22:20 30.76920 73.62581 16560 ft 432 kts 47°
2026-05-03 22:20 30.78894 73.65194 15907 ft 428 kts 47°
2026-05-03 22:20 30.80849 73.67782 15260 ft 424 kts 47°
2026-05-03 22:20 30.82787 73.70351 14616 ft 421 kts 48°
2026-05-03 22:21 30.84711 73.72901 13992 ft 418 kts 47°
2026-05-03 22:21 30.86623 73.75434 13342 ft 415 kts 48°
2026-05-03 22:21 30.88491 73.77914 12651 ft 398 kts 48°
2026-05-03 22:21 30.90271 73.80280 12061 ft 380 kts 48°
2026-05-03 22:22 30.92010 73.82592 11494 ft 379 kts 48°
2026-05-03 22:22 30.93752 73.84908 10903 ft 379 kts 49°
2026-05-03 22:22 30.95479 73.87205 10563 ft 371 kts 49°
2026-05-03 22:22 30.97148 73.89427 10390 ft 359 kts 49°
2026-05-03 22:23 30.98760 73.91575 10244 ft 345 kts 49°
2026-05-03 22:23 31.00309 73.93642 10107 ft 333 kts 49°
2026-05-03 22:23 31.01811 73.95648 9959 ft 322 kts 49°
2026-05-03 22:23 31.03254 73.97580 9836 ft 311 kts 49°
2026-05-03 22:24 31.04652 73.99453 9707 ft 301 kts 49°
2026-05-03 22:24 31.06013 74.01280 9403 ft 299 kts 49°
2026-05-03 22:24 31.07371 74.03103 9067 ft 296 kts 49°
2026-05-03 22:24 31.08701 74.04889 8760 ft 294 kts 49°
2026-05-03 22:25 31.10039 74.06686 8435 ft 292 kts 49°
2026-05-03 22:25 31.11364 74.08465 8127 ft 290 kts 49°
2026-05-03 22:25 31.12679 74.10231 7826 ft 287 kts 49°
2026-05-03 22:25 31.13961 74.11954 7562 ft 275 kts 49°
2026-05-03 22:26 31.15199 74.13617 7116 ft 269 kts 49°
2026-05-03 22:26 31.16419 74.15258 6587 ft 267 kts 49°
2026-05-03 22:26 31.17625 74.16880 6112 ft 263 kts 49°
2026-05-03 22:26 31.18811 74.18478 5724 ft 256 kts 49°
2026-05-03 22:27 31.19955 74.20016 5416 ft 245 kts 49°
2026-05-03 22:27 31.21053 74.21487 5079 ft 237 kts 49°
2026-05-03 22:27 31.22133 74.22925 4690 ft 234 kts 49°
2026-05-03 22:27 31.23228 74.24371 4350 ft 238 kts 49°
2026-05-03 22:28 31.24323 74.25804 4153 ft 235 kts 49°
2026-05-03 22:28 31.25401 74.27201 4006 ft 230 kts 49°
2026-05-03 22:28 31.26466 74.28568 3868 ft 224 kts 49°
2026-05-03 22:28 31.27506 74.29885 3751 ft 216 kts 49°
2026-05-03 22:29 31.28523 74.31146 3615 ft 210 kts 49°
2026-05-03 22:29 31.29508 74.32364 3470 ft 203 kts 49°
2026-05-03 22:29 31.30470 74.33546 3340 ft 196 kts 49°
2026-05-03 22:29 31.31391 74.34672 3142 ft 192 kts 49°
2026-05-03 22:30 31.32318 74.35788 3023 ft 192 kts 49°
2026-05-03 22:30 31.33231 74.36895 3009 ft 191 kts 49°
2026-05-03 22:30 31.34152 74.38009 3012 ft 189 kts 49°
2026-05-03 22:30 31.35046 74.39078 3014 ft 184 kts 48°
2026-05-03 22:31 31.36136 74.39829 2985 ft 183 kts 15°
2026-05-03 22:31 31.37368 74.40009 3006 ft 175 kts 12°
2026-05-03 22:31 31.38573 74.40167 2995 ft 175 kts
2026-05-03 22:31 31.39791 74.40232 2819 ft 174 kts
2026-05-03 22:32 31.40982 74.40258 2573 ft 168 kts
2026-05-03 22:32 31.42107 74.40277 2389 ft 156 kts
2026-05-03 22:32 31.43176 74.40296 2219 ft 153 kts
2026-05-03 22:32 31.44243 74.40315 2012 ft 152 kts
2026-05-03 22:33 31.45300 74.40335 1810 ft 152 kts
2026-05-03 22:33 31.46360 74.40354 1613 ft 150 kts
2026-05-03 22:33 31.47389 74.40374 1372 ft 146 kts
2026-05-03 22:33 31.48389 74.40386 1164 ft 144 kts
2026-05-03 22:34 31.49422 74.40420 989 ft 149 kts
2026-05-03 22:34 31.50458 74.40422 822 ft 149 kts
2026-05-03 22:34 31.51482 74.40444 724 ft 140 kts
2026-05-03 22:34 31.52348 74.40461 724 ft 108 kts
2026-05-03 22:35 31.52844 74.40474 724 ft 41 kts 360°
2026-05-03 22:35 31.53133 74.40475 727 ft 40 kts
2026-05-03 22:35 31.53396 74.40481 727 ft 35 kts
2026-05-03 22:35 31.53588 74.40485 728 ft 16 kts
2026-05-03 22:36 31.53639 74.40569 729 ft 15 kts 106°
2026-05-03 22:36 31.53572 74.40657 726 ft 15 kts 143°
2026-05-03 22:36 31.53477 74.40689 727 ft 15 kts 178°
2026-05-03 22:36 31.53375 74.40691 727 ft 15 kts 180°
2026-05-03 22:37 31.53275 74.40689 726 ft 15 kts 181°
2026-05-03 22:37 31.53177 74.40685 726 ft 15 kts 181°
2026-05-03 22:37 31.53073 74.40684 725 ft 15 kts 180°
2026-05-03 22:37 31.52971 74.40683 725 ft 15 kts 180°
2026-05-03 22:38 31.52871 74.40681 726 ft 15 kts 182°
2026-05-03 22:38 31.52769 74.40677 725 ft 17 kts 181°
2026-05-03 22:38 31.52615 74.40678 725 ft 23 kts 182°
2026-05-03 22:38 31.52476 74.40671 724 ft 15 kts 178°
2026-05-03 22:39 31.52409 74.40746 726 ft 15 kts 98°
2026-05-03 22:39 31.52356 74.40839 724 ft 15 kts 164°
2026-05-03 22:39 31.52252 74.40844 724 ft 15 kts 180°
2026-05-03 22:39 31.52189 74.40845 724 ft 7 kts 174°
2026-05-03 22:40 31.52169 74.40881 725 ft 4 kts 89°
2026-05-03 22:40 31.52169 74.40914 725 ft 4 kts 90°
2026-05-03 22:40 31.52169 74.40922 725 ft 0 kts 90°
2026-05-03 22:40 31.52169 74.40940 725 ft 4 kts 90°
2026-05-03 22:41 31.52169 74.40947 725 ft 0 kts 90°